DW4554 Weather Reports


time (UTC)temp
C
wind
direction
speed
KPH
gust
KPH
rain 1hr
cm
rain 24hr
cm
rain mn
cm
humidity
%
barometer
mb
20260901081404 20 290 6.4 12.9 0.00 0.03 0.00 68 1018.0
20260901080404 20 243 8.0 19.3 0.00 0.03 0.00 69 1017.9
20260901075904 20 235 4.8 19.3 0.00 0.03 0.00 70 1017.8
20260901075404 19 236 1.6 9.7 0.00 0.03 0.00 72 1017.8
20260901074904 19 234 3.2 9.7 0.00 0.03 0.00 74 1017.8
20260901074404 19 234 4.8 12.9 0.00 0.03 0.00 73 1017.7
20260901073905 18 233 8.0 14.5 0.00 0.03 0.00 73 1017.7
20260901072904 18 192 3.2 8.0 0.00 0.03 0.00 76 1017.6
20260901072405 18 188 3.2 11.3 0.00 0.03 0.00 74 1017.6
20260901071904 18 225 8.0 16.1 0.00 0.03 0.00 77 1017.6
20260901071404 18 204 6.4 12.9 0.00 0.03 0.00 78 1017.5
20260901070905 18 215 4.8 12.9 0.00 0.03 0.00 78 1017.4
20260901070404 17 195 4.8 12.9 0.00 0.03 0.00 81 1017.4
20260901065905 17 207 6.4 12.9 0.00 0.03 0.00 81 1017.4
20260901065405 16 208 8.0 16.1 0.00 0.03 0.00 84 1017.3
20260901064905 16 182 1.6 8.0 0.00 0.03 0.00 85 1017.2
20260901064404 16 182 4.8 11.3 0.00 0.03 0.00 88 1017.2
20260901063904 15 192 3.2 4.8 0.00 0.03 0.00 90 1017.1
20260901063404 15 215 4.8 9.7 0.00 0.03 0.00 91 1017.1
20260901062904 15 208 4.8 11.3 0.00 0.03 0.00 92 1017.1
20260901062404 15 178 4.8 8.0 0.00 0.03 0.00 92 1017.1
20260901061904 15 182 3.2 9.7 0.00 0.03 0.00 92 1017.1
20260901061404 14 157 4.8 8.0 0.00 0.03 0.00 92 1017.1
20260901060904 14 122 0.0 0.0 0.00 0.03 0.00 92 1017.0
20260901060404 14 96 0.0 0.0 0.00 0.03 0.00 93 1017.0
20260901055404 13 96 0.0 0.0 0.00 0.03 0.00 92 1016.8
20260901054904 13 96 0.0 0.0 0.00 0.03 0.00 92 1016.8
20260901054405 13 96 0.0 0.0 0.00 0.03 0.00 92 1016.8
20260901051905 13 96 0.0 0.0 0.00 0.03 0.00 92 1016.6
20260901051404 13 96 0.0 0.0 0.00 0.03 0.00 92 1016.6
20260901050905 13 96 0.0 0.0 0.00 0.03 0.00 92 1016.6
20260901050404 13 96 0.0 0.0 0.00 0.03 0.00 92 1016.5
20260901045404 13 96 0.0 0.0 0.00 0.03 0.00 92 1016.5
20260901044904 13 96 0.0 1.6 0.00 0.03 0.00 92 1016.4
20260901044404 13 96 0.0 3.2 0.00 0.03 0.00 92 1016.3
20260901043904 13 96 0.0 1.6 0.00 0.03 0.00 92 1016.3
20260901043404 13 96 0.0 3.2 0.00 0.03 0.00 91 1016.2
20260901042904 13 96 1.6 3.2 0.00 0.03 0.00 91 1016.2
20260901042404 13 96 1.6 3.2 0.00 0.03 0.00 91 1016.1
20260901041404 13 96 0.0 0.0 0.00 0.03 0.00 91 1016.0
20260901040405 13 96 0.0 0.0 0.00 0.03 0.00 91 1015.9
20260901035904 13 96 0.0 0.0 0.00 0.03 0.00 91 1015.8
20260901035404 13 96 0.0 0.0 0.00 0.03 0.00 91 1015.8
20260901034904 13 96 0.0 0.0 0.00 0.03 0.00 91 1015.8
20260901033404 14 96 0.0 0.0 0.00 0.03 0.00 91 1015.5
20260901032904 14 96 0.0 0.0 0.00 0.03 0.00 91 1015.5
20260901032404 14 96 0.0 0.0 0.00 0.03 0.00 91 1015.5
20260901031905 14 96 0.0 0.0 0.00 0.03 0.00 90 1015.5
20260901031404 14 96 0.0 0.0 0.00 0.03 0.00 90 1015.5
20260901030904 15 96 0.0 0.0 0.00 0.03 0.00 91 1015.5
20260901030404 15 96 0.0 0.0 0.00 0.03 0.00 90 1015.5
20260901025404 15 96 0.0 0.0 0.00 0.03 0.00 90 1015.5
20260901024904 15 96 0.0 0.0 0.00 0.03 0.00 90 1015.5
20260901024404 15 96 0.0 0.0 0.00 0.03 0.00 90 1015.5
20260901023904 15 96 0.0 0.0 0.00 0.03 0.00 90 1015.5
20260901023405 15 96 0.0 0.0 0.00 0.03 0.00 90 1015.4
20260901022904 15 96 0.0 0.0 0.00 0.03 0.00 90 1015.3
20260901022404 15 96 0.0 0.0 0.00 0.03 0.00 90 1015.3
20260901021904 15 96 0.0 0.0 0.00 0.03 0.00 90 1015.2
20260901020404 15 96 1.6 4.8 0.00 0.03 0.00 90 1015.2
20260901015904 16 96 0.0 0.0 0.00 0.03 0.00 90 1015.1
20260901015404 16 96 0.0 0.0 0.00 0.03 0.00 90 1015.1
20260901014904 16 96 0.0 0.0 0.00 0.03 0.00 90 1015.1
20260901014404 16 96 0.0 0.0 0.00 0.03 0.00 90 1015.1
20260901013904 16 96 1.6 3.2 0.00 0.03 0.00 90 1015.1
20260901013404 16 96 0.0 3.2 0.00 0.03 0.00 90 1015.1
20260901012904 16 96 3.2 4.8 0.00 0.03 0.00 89 1015.1
20260901012404 16 203 1.6 4.8 0.00 0.03 0.00 89 1015.1
20260901011904 16 213 0.0 0.0 0.00 0.03 0.00 89 1015.0
20260901011404 16 213 0.0 0.0 0.00 0.03 0.00 89 1015.0
20260901010904 16 213 0.0 0.0 0.00 0.03 0.00 89 1015.0
20260901010404 16 213 0.0 0.0 0.00 0.03 0.00 89 1015.0
20260901005905 16 213 0.0 0.0 0.00 0.03 0.00 89 1015.0
20260901005404 16 213 0.0 0.0 0.00 0.03 0.00 89 1015.0
20260901004904 17 213 0.0 0.0 0.00 0.03 0.00 89 1015.0
20260901004404 17 213 0.0 0.0 0.00 0.03 0.00 89 1015.0
20260901003904 17 213 0.0 0.0 0.00 0.03 0.00 89 1015.0
20260901003404 17 213 0.0 0.0 0.00 0.03 0.00 89 1015.1
20260901002904 17 213 0.0 0.0 0.00 0.03 0.00 89 1015.0
20260901002404 17 213 0.0 0.0 0.00 0.03 0.00 89 1015.0
20260901001904 17 213 0.0 0.0 0.00 0.03 0.00 89 1015.0
20260901001404 17 213 0.0 0.0 0.00 0.03 0.00 89 1015.0
20260901000904 17 213 0.0 0.0 0.00 0.03 0.00 89 1015.0
20260901000405 17 213 0.0 0.0 0.00 0.03 0.00 89 1015.0
20260831235904 17 213 0.0 32.2 0.00 0.03 0.00 89 1014.9
20260831235404 17 213 0.0 0.0 0.00 0.03 0.00 89 1014.9
20260831234904 17 213 0.0 0.0 0.00 0.03 0.00 89 1014.9
20260831234404 17 213 0.0 0.0 0.00 0.03 0.00 89 1014.9
20260831233404 17 213 0.0 0.0 0.00 0.03 0.00 89 1015.0
20260831232404 17 213 0.0 0.0 0.00 0.03 0.00 89 1015.1
20260831231904 17 213 0.0 0.0 0.00 0.03 0.00 89 1015.1
20260831231405 17 213 0.0 0.0 0.00 0.03 0.00 89 1015.1
20260831230904 17 213 0.0 0.0 0.00 0.03 0.00 89 1015.1
20260831225905 17 213 0.0 0.0 0.00 0.03 0.00 88 1015.3
20260831225404 17 213 0.0 0.0 0.00 0.03 0.00 88 1015.4
20260831224904 17 213 0.0 0.0 0.00 0.03 0.00 88 1015.5
20260831223904 17 213 0.0 0.0 0.00 0.03 0.00 88 1015.5
20260831222904 18 213 0.0 0.0 0.00 0.03 0.00 88 1015.6
20260831222404 18 213 0.0 0.0 0.00 0.03 0.00 88 1015.6
20260831221904 18 213 0.0 0.0 0.00 0.03 0.00 88 1015.6
20260831221404 18 213 0.0 0.0 0.00 0.03 0.00 87 1015.6
20260831220904 18 213 0.0 0.0 0.00 0.03 0.00 87 1015.6
20260831215404 18 213 0.0 0.0 0.00 0.03 0.03 86 1015.4
20260831214904 18 213 0.0 0.0 0.00 0.03 0.03 86 1015.3
20260831214404 18 213 0.0 0.0 0.00 0.03 0.03 86 1015.2
20260831213904 18 213 0.0 0.0 0.00 0.03 0.03 86 1015.1
20260831213405 18 213 0.0 0.0 0.00 0.03 0.03 86 1014.9
20260831212904 18 213 0.0 0.0 0.00 0.03 0.03 86 1014.9
20260831211904 18 213 0.0 0.0 0.00 0.03 0.03 86 1014.7
20260831211404 18 213 0.0 0.0 0.00 0.03 0.03 86 1014.7
20260831210904 18 213 0.0 0.0 0.00 0.03 0.03 86 1014.7
20260831210405 18 213 0.0 0.0 0.00 0.03 0.03 86 1014.6
20260831205904 18 213 0.0 0.0 0.00 0.03 0.03 85 1014.7
20260831205404 18 213 0.0 0.0 0.00 0.03 0.03 85 1014.7
20260831204904 18 213 0.0 0.0 0.00 0.03 0.03 85 1014.6
20260831203904 19 213 0.0 0.0 0.00 0.03 0.03 85 1014.2
20260831203404 19 213 0.0 0.0 0.00 0.03 0.03 85 1014.0
20260831202904 19 213 0.0 0.0 0.00 0.03 0.03 85 1013.9
20260831202404 19 213 0.0 0.0 0.00 0.03 0.03 84 1013.9
20260831201905 19 213 0.0 0.0 0.00 0.03 0.03 84 1013.9
20260831200904 19 213 0.0 0.0 0.00 0.03 0.03 83 1013.7
20260831200404 20 213 0.0 0.0 0.00 0.03 0.03 83 1013.7
20260831195904 20 213 0.0 0.0 0.00 0.03 0.03 83 1013.7
20260831195404 20 213 0.0 0.0 0.00 0.03 0.03 83 1013.7
20260831194904 20 213 0.0 0.0 0.00 0.03 0.03 83 1013.6
20260831194405 20 213 0.0 0.0 0.00 0.03 0.03 82 1013.4
20260831193904 20 213 0.0 0.0 0.00 0.03 0.03 82 1013.4
20260831193404 20 213 0.0 0.0 0.00 0.03 0.03 81 1013.4
20260831192904 20 213 0.0 0.0 0.00 0.03 0.03 81 1013.3
20260831192404 20 213 0.0 0.0 0.00 0.03 0.03 81 1013.2
20260831191904 20 213 0.0 0.0 0.00 0.03 0.03 80 1013.2
20260831191404 20 213 0.0 0.0 0.00 0.03 0.03 80 1013.1
20260831190404 21 213 0.0 1.6 0.00 0.03 0.03 78 1012.9
20260831185904 21 213 0.0 1.6 0.00 0.03 0.03 78 1012.8
20260831185404 21 213 0.0 1.6 0.00 0.03 0.03 78 1012.8
20260831184904 21 213 0.0 0.0 0.00 0.03 0.03 77 1012.7
20260831184404 21 213 0.0 0.0 0.00 0.03 0.03 76 1012.6
20260831183904 21 213 0.0 1.6 0.00 0.03 0.03 76 1012.6
20260831183404 21 213 0.0 3.2 0.00 0.03 0.03 75 1012.5
20260831182905 22 213 0.0 0.0 0.00 0.03 0.03 75 1012.5
20260831181904 22 213 0.0 0.0 0.00 0.03 0.03 74 1012.6
20260831180905 22 213 0.0 0.0 0.00 0.03 0.03 73 1012.5
20260831180404 22 213 0.0 0.0 0.00 0.03 0.03 73 1012.5
20260831175904 23 213 0.0 0.0 0.00 0.03 0.03 73 1012.5
20260831174904 23 213 0.0 0.0 0.00 0.03 0.03 71 1012.5
20260831174404 23 213 0.0 0.0 0.00 0.03 0.03 70 1012.4
20260831173904 23 213 0.0 0.0 0.00 0.03 0.03 69 1012.3
20260831173405 23 213 0.0 0.0 0.00 0.03 0.03 69 1012.4
20260831172904 24 213 0.0 3.2 0.00 0.03 0.03 68 1012.2
20260831171404 25 213 1.6 3.2 0.00 0.03 0.03 67 1012.2
20260831170904 25 213 1.6 4.8 0.00 0.03 0.03 66 1012.2
20260831170404 25 215 0.0 1.6 0.00 0.03 0.03 66 1012.2
20260831165904 25 215 0.0 0.0 0.00 0.03 0.03 64 1012.3
20260831165404 25 215 0.0 0.0 0.00 0.03 0.03 64 1012.3
20260831164904 26 215 0.0 0.0 0.00 0.03 0.03 63 1012.2
20260831164404 26 215 0.0 0.0 0.00 0.03 0.03 62 1012.2
20260831163904 26 215 0.0 0.0 0.00 0.03 0.03 62 1012.2
20260831163404 26 215 0.0 0.0 0.00 0.03 0.03 62 1012.3
20260831162404 27 215 0.0 0.0 0.00 0.03 0.03 59 1012.2
20260831161904 27 215 0.0 0.0 0.00 0.03 0.03 58 1012.2
20260831161404 27 215 0.0 3.2 0.00 0.03 0.03 58 1012.2
20260831160904 27 215 3.2 4.8 0.00 0.03 0.03 57 1012.2
20260831160404 27 215 3.2 4.8 0.00 0.03 0.03 56 1012.2
20260831155904 27 215 3.2 8.0 0.00 0.03 0.03 57 1012.2
20260831155404 27 213 4.8 9.7 0.00 0.03 0.03 57 1012.2
20260831154904 27 209 0.0 4.8 0.00 0.03 0.03 56 1012.2
20260831154404 27 209 1.6 4.8 0.00 0.03 0.03 57 1012.2
20260831153904 27 209 0.0 4.8 0.00 0.03 0.03 56 1012.2
20260831153405 27 209 1.6 4.8 0.00 0.03 0.03 57 1012.2
20260831152904 27 209 1.6 4.8 0.00 0.03 0.03 57 1012.2
20260831152404 27 225 3.2 8.0 0.00 0.03 0.03 59 1012.2
20260831151904 27 225 4.8 8.0 0.00 0.03 0.03 59 1012.2
20260831151404 26 202 3.2 9.7 0.00 0.03 0.03 58 1012.2
20260831150404 26 209 1.6 4.8 0.00 0.03 0.03 59 1012.3
20260831145904 26 209 0.0 4.8 0.00 0.03 0.03 60 1012.3
20260831145404 26 211 0.0 4.8 0.00 0.03 0.03 60 1012.4
20260831144904 26 212 4.8 11.3 0.00 0.03 0.03 59 1012.4
20260831144404 26 228 4.8 9.7 0.03 0.03 0.03 59 1012.4
20260831143904 26 234 4.8 11.3 0.03 0.03 0.03 59 1012.4
20260831143404 26 232 4.8 9.7 0.03 0.03 0.03 60 1012.5
20260831142904 26 222 3.2 11.3 0.03 0.03 0.03 60 1012.4
20260831142404 26 200 4.8 8.0 0.03 0.03 0.03 62 1012.4
20260831141905 26 236 6.4 12.9 0.03 0.03 0.03 61 1012.5
20260831140904 26 214 4.8 9.7 0.03 0.03 0.03 60 1012.5
20260831140404 26 192 3.2 8.0 0.03 0.03 0.03 60 1012.5
20260831135904 26 187 1.6 8.0 0.03 0.03 0.03 58 1012.5
20260831135404 26 213 3.2 4.8 0.03 0.03 0.03 58 1012.5
20260831134904 26 214 4.8 9.7 0.03 0.03 0.03 59 1012.5
20260831133904 26 237 1.6 11.3 0.00 0.00 0.00 61 1012.6
20260831133405 26 269 3.2 4.8 0.00 0.00 0.00 60 1012.6
20260831132904 26 297 4.8 12.9 0.00 0.00 0.00 61 1012.7
20260831132404 25 274 3.2 9.7 0.00 0.00 0.00 61 1012.7
20260831131904 25 271 1.6 9.7 0.00 0.00 0.00 63 1012.7
20260831131404 25 258 4.8 8.0 0.00 0.00 0.00 65 1012.8
20260831130905 25 286 1.6 4.8 0.00 0.00 0.00 64 1012.8
20260831130405 25 289 8.0 11.3 0.00 0.00 0.00 61 1012.9
20260831125904 25 285 6.4 11.3 0.00 0.00 0.00 61 1013.0
20260831125404 25 269 3.2 8.0 0.00 0.00 0.00 60 1012.9
20260831124904 25 231 3.2 11.3 0.00 0.00 0.00 60 1013.0
20260831124404 25 275 4.8 12.9 0.00 0.00 0.00 60 1013.0
20260831123904 25 237 3.2 16.1 0.00 0.00 0.00 60 1013.1
20260831123404 25 241 8.0 19.3 0.00 0.00 0.00 59 1013.1
20260831122904 26 226 8.0 12.9 0.00 0.00 0.00 58 1013.1
20260831122404 26 239 12.9 19.3 0.00 0.00 0.00 58 1013.0
20260831120904 26 229 8.0 16.1 0.00 0.00 0.00 60 1013.0
20260831120404 25 244 8.0 19.3 0.00 0.00 0.00 59 1013.0
20260831115904 26 235 9.7 19.3 0.00 0.00 0.00 59 1013.0
20260831115404 26 254 8.0 16.1 0.00 0.00 0.00 59 1013.0
20260831114404 26 243 8.0 16.1 0.00 0.00 0.00 60 1012.8
20260831113904 26 222 8.0 14.5 0.00 0.00 0.00 59 1012.8
20260831113404 26 228 8.0 14.5 0.00 0.00 0.00 59 1012.9
20260831112904 26 238 9.7 19.3 0.00 0.00 0.00 58 1012.9
20260831112404 26 218 9.7 19.3 0.00 0.00 0.00 57 1012.8
20260831111904 26 208 9.7 19.3 0.00 0.00 0.00 58 1012.8
20260831111404 27 214 9.7 19.3 0.00 0.00 0.00 57 1012.8
20260831110904 27 233 14.5 24.1 0.00 0.00 0.00 58 1012.7
20260831110404 27 220 14.5 32.2 0.00 0.00 0.00 58 1012.6
20260831105904 27 222 14.5 25.7 0.00 0.00 0.00 58 1012.5
20260831105404 27 242 9.7 20.9 0.00 0.00 0.00 58 1012.4
20260831104904 26 215 9.7 19.3 0.00 0.00 0.00 60 1012.4
20260831104404 26 235 9.7 20.9 0.00 0.00 0.00 60 1012.5
20260831103404 26 227 6.4 16.1 0.00 0.00 0.00 62 1012.5
20260831102904 26 243 9.7 19.3 0.00 0.00 0.00 65 1012.6
20260831101904 25 229 4.8 12.9 0.00 0.00 0.00 65 1012.5
20260831101404 25 240 3.2 8.0 0.00 0.00 0.00 65 1012.5
20260831100404 25 242 1.6 4.8 0.00 0.00 0.00 65 1012.4
20260831095904 25 218 1.6 3.2 0.00 0.00 0.00 65 1012.4
20260831095404 25 218 1.6 4.8 0.00 0.00 0.00 65 1012.3
20260831094404 25 218 3.2 9.7 0.00 0.00 0.00 65 1012.4
20260831093904 25 215 4.8 4.8 0.00 0.00 0.00 64 1012.5
20260831093404 25 215 4.8 8.0 0.00 0.00 0.00 65 1012.4
20260831092904 25 207 1.6 4.8 0.00 0.00 0.00 63 1012.2
20260831092405 25 208 3.2 8.0 0.00 0.00 0.00 65 1012.3
20260831091904 25 213 8.0 11.3 0.00 0.00 0.00 65 1012.4
20260831090405 25 243 3.2 8.0 0.00 0.00 0.00 65 1012.5
20260831085904 25 245 3.2 8.0 0.00 0.00 0.00 66 1012.5
20260831085404 25 242 1.6 4.8 0.00 0.00 0.00 65 1012.4
20260831084904 25 253 1.6 4.8 0.00 0.00 0.00 65 1012.3
20260831084404 25 50 0.0 1.6 0.00 0.00 0.00 65 1012.3
20260831083904 25 50 0.0 1.6 0.00 0.00 0.00 64 1012.1
20260831083405 25 50 1.6 4.8 0.00 0.00 0.00 65 1012.0
20260831082904 24 50 1.6 4.8 0.00 0.00 0.00 68 1012.0
20260831082404 24 50 0.0 0.0 0.00 0.00 0.00 69 1012.0
20260831081905 24 50 0.0 3.2 0.00 0.00 0.00 66 1012.0